Погода в Тынде

Погода в Тынде : погода сейчас, прогноз погоды и архив. Всё, что Вы хотите узнать о погоде в Тынде!

Хотите узнать прогноз погоды в Тынде? Тогда Вам сюда: Погода в Тынде

Поиск расширенной информации на нашем сайте:

Другие новости

Новости СМИ2

Главная страница сайта

Новости сайта

03.07.2017

Напоминаем, что на нашем специализированном сайте Метеоцентр.Азия вы можете получить высокодетализированные автоматические прогнозы погоды по пунктам России, СНГ и мира в авиационном формате (включающие направление и скорость ветра, видимость, явления погоды, количество и форму облачности, нижнюю и верхнюю границу облачности).


Погода в Тынде - сегодня

Время (UTC), дата Ветер
(°,м/с) 
Видим.   Явления Облачность Т
(°С)
Тd
(°С)
f(%) Тe
(°С)
Pmin
(гПа)
dP
(гПа)
Po
(мм)
O2
(г/м3)
Тmin Tmax R s Состояние
почвы
15 14.08.18 тихо ()   20000 м    6/0 средняя 
[Ac As]
+11.1 +10.2 94 +13  1019.5  1.5  718  276           
18 14.08.18 020 (С) 0500 м  туман  ?/?  
+10.3 +9.6 95 +12  1020.9  1.1  719  277           
21 14.08.18 280 (З) 0500 м  туман  ?/?  
+9.3 +8.6 95 +10  1022.4  1.1  720  279           
00 15.08.18 тихо ()   0500 м  туман  ?/?  
+10.7 +10.1 96 +13  1022.5  0.5  720  277  +9.2        влажная 
03 15.08.18 170 (Ю) 20000 м  {туман}  ясно 
+21.5 +13.1 59 +28  1019  -1.1  719  266           
06 15.08.18 230 (ЮЗ) 20000 м  {туман}  3/0 верхняя 
[Ci fib]
+25.7 +6.2 29 +26  1016.4  -1.7  718  263           
09 15.08.18 210 (ЮЗ) 20000 м    ясно 
+24.4 +8.1 35 +24  1015.5  -1.1  717  264           
15 15.08.18 170 (Ю) 20000 м    3/0 верхняя 
[Ci fib]
+13.7 +11.2 85 +19  1017.4  -0.4  717  273           
18 15.08.18 тихо ()   20000 м    ясно 
+11 +9.9 93 +13  1017.8  -0.2  717  276           
21 15.08.18 тихо ()   20000 м    10/8 600 м кучево-дожд., верхняя 
[Cb cap|Ci fib]
+11.6 +9.8 89 +13  1017  -0.7  716  275           
00 16.08.18 090 (В) 20000 м    9/5 600 м средняя 
[Sc|Ac As]
+15.3 +11.5 78 +21  1015.7  -0.4  716  271  +10.6        сухая 
03 16.08.18 100 (В) 20000 м    8/0 средняя, верхняя 
[Ac trans|Ci sp]
+22.5 +13.7 58 +30  1012.7  -1.3  715  263           
06 16.08.18 180 (Ю) 20000 м    9/5 600 м средняя, верхняя 
[Cu hum|As trans|Ci fib]
+26.4 +15.2 50 +37  1009.8  -2  714  259           
09 16.08.18 200 (Ю) 20000 м    8/6 600 м верхняя 
[Sc|Ci]
+23.7 +15.4 60 +34  1009.7  -0.5  713  261           
15 16.08.18 050 (СВ) 20000 м    10/10 600 м кучево-дожд. 
[Cb cap]
+18.2 +14 76 +28  1009.3  -0.9  712  266           
18 16.08.18 060 (СВ) 20000 м    10/10 600 м кучево-дожд. 
[Cb cap]
+16.2 +13.8 86 +26  1008.4  -1.2  711  268           
21 16.08.18 040 (СВ) 20000 м  в посл. час ливневой дождь  10/10 600 м кучево-дожд. 
[Cb cap]
+15.5 +14.4 93 +26  1007.2  -1.2  710  268           
00 17.08.18 080 (В) 20000 м  {ливн. осадки}  10/8 600 м кучево-дожд., средняя, верхняя 
[Cb cap|Ac trans|Ci fib]
+17.5 +14.2 81 +28  1005.6  -1.1  709  266  +15.5    0.5    влажная 
03 17.08.18 150 (ЮВ) 20000 м  слаб. ливневой дождь  10/8 600 м кучево-дожд., средняя 
[Cb cap|Ac As]
+19.9 +14.1 69 +30  1004  -1.1  709  263           
06 17.08.18 тихо ()   20000 м  слаб. ливневой дождь  10/10 600 м кучево-дожд. 
[Cb cap]
+19.1 +12.7 66 +25  1003.4  -0.7  708  264           
09 17.08.18 140 (ЮВ) 20000 м  слаб. ливневой дождь  10/10 600 м кучево-дожд. 
[Cb cap]
+17 +14.9 87 +28  1003.2  -0.6  708  265           
12 17.08.18 070 (В) 10 км  слаб. ливневой дождь  10/10 300 м кучево-дожд. 
[Cb cap]
+14.9 +14.1 95 +25  1003.3  -0.3  707  267    +20.7     
15 17.08.18 070 (В) 10 км  слаб. ливневой дождь  10/10 600 м кучево-дожд. 
[Cb cap]
+14.7 +14 96 +25  1002.1  -1.2  706  267           
18 17.08.18 тихо ()   20000 м  в посл. час ливневой дождь  10/10 600 м кучево-дожд. 
[Cb cap]
+14.6 +13.8 95 +23  1001.3  -0.7  706  267           
21 17.08.18 090 (В) 10 км  слаб. ливневой дождь  10/10 600 м кучево-дожд. 
[Cb cap]
+14.1 +13.3 95 +22  1001  -0.4  706  268           
Время (UTC), дата Ветер
(°,м/с) 
Видим.   Явления Облачность Т
(°С)
Тd
(°С)
f(%) Тe
(°С)
Pmin
(гПа)
dP
(гПа)
Po
(мм)
O2
(г/м3)
Тmin Tmax R s Состояние
почвы

Для получения пояснительной информации подведите курсор к названию столбца.

ПОГОДА в Тынде - архив

Всё, что Вы хотите узнать о погоде в Тынде - удобно и подробно!

Выберите нужную дату (начиная с 1 января 2015* года) и нажмите кнопку "Найти".
Будут отображены архивные сводки погоды по пункту Тында, начиная с указанной даты.


Отображать данные в формате CSV (для использования в таблицах Excel)


Внимание! Наш архив погоды предназначен исключительно для личного некоммерческого использования в познавательных целях. Если Вам необходимы официальные справки о состоянии погоды (для производственных, юридических, коммерческих и т.п. целей), обращайтесь в органы Росгидромета.

*Примечание: данная дата относится к архиву по метеостанциям СССР (Россия, СНГ, Балтия).
Архив по метеостанциям Зарубежной Европы и Азии (кроме Китая) хранится 10 дней, по другим регионам земного шара (Китай, Африка, Америка, Австралия, Океания) - 1 день.

Тында - район местоположения метеостанции


Название, широта, долгота, высота метеостанции:
Тында 55.2°ш. 124.7°д. 528 м над ур. моря [Российская Федерация]

Дополнительная информация

В oтличие oт бoльшинства пoгoдных сайтoв мы публикуем пoдрoбную метеoинфoрмацию в детальнoм прoфессиoнальнoм фoрмате.

Характеристики температуры и влажнoсти вoздуха измеряются на высoте 2 м в тени вдали oт зданий и деревьев.
Скoрoсть ветра измеряется на высoте 10 м (на урoвне рoста челoвека скoрoсть ветра ниже в 1.5-2 раза). Если метеoстанция нахoдится в гoрoде или в лесу, тo скoрoсть ветра занижена на 2-4 м/с пo сравнению с oткрытым местoм. Скoрoсть ветра над акватoриями крупных рек и oзёр, а также на вершинах хoлмoв на 2-5 м/с выше, чем в oбычных услoвиях.
Атмoсфернoе давление в разных тoчках местнoсти мoжет значительнo oтличаться oт давления на метеoстанции, в зависимoсти oт услoвий рельефа (при пoдъёме на 10 м давление пoнижается примернo на 1 мм рт.ст.).